Temperature
18 19 20 21 20 19 19 18 18 19 19 20 19 18 18 19 19 19 20 20 20 20 20 20 20 20 20 19 19 19 19 18 18 18 18 17 17 17 17 17 17 17 16 16
19 20 20 20 20 20 20 19 19 20 20 19 18 19 18 18 18 19 20 20 20 20 20 20 20 20 19 19 19 18 18 18 18 18 17 17 17 17 16 16 16 16 16 16
17 19 20 19 19 20 19 19 19 20 20 18 17 17 17 18 18 19 19 19 20 20 20 20 19 19 19 18 18 18 18 17 17 17 17 17 16 16 16 16 16 16 16 16
16 19 19 19 19 19 19 18 18 18 18 17 17 17 18 19 19 19 19 19 19 20 19 19 19 19 18 18 18 17 17 17 17 17 17 16 16 16 16 16 16 16 15 15
14 16 18 19 19 18 18 18 17 17 17 16 17 17 17 18 19 19 19 19 19 19 19 19 18 18 18 17 17 17 17 17 17 16 16 16 16 16 16 15 15 15 15 15
14 17 18 18 19 18 19 18 18 17 16 16 17 17 16 18 18 19 19 19 19 18 18 18 18 17 17 17 17 16 16 16 16 16 16 16 15 15 15 15 15 14 14 14
15 16 17 17 17 18 19 18 18 17 17 17 17 17 18 18 18 18 18 18 18 18 17 17 17 17 17 17 16 16 16 16 16 15 15 15 15 15 14 14 14 14 14 13
13 16 17 17 17 17 17 17 17 17 17 17 17 17 17 17 17 17 17 17 17 17 17 16 16 17 16 16 16 15 15 15 15 15 15 15 14 14 14 14 14 13 13 13
13 14 14 15 15 16 17 16 17 17 17 17 17 16 17 16 16 17 17 17 17 17 16 16 16 16 16 15 15 15 15 15 15 14 14 14 14 14 14 13 13 13 13 12
13 13 14 15 16 16 17 17 17 17 17 17 16 16 16 16 16 16 16 16 16 16 16 15 15 15 15 15 14 14 14 14 14 14 14 13 13 13 13 13 12 12 12 12
13 13 14 15 15 16 16 17 17 17 17 17 16 16 16 15 15 16 15 15 15 15 15 15 14 14 14 14 14 14 14 14 13 13 13 13 12 12 12 12 12 12 11 11
13 13 13 14 15 16 16 16 16 16 16 16 16 16 15 15 15 15 15 15 14 14 14 14 14 14 14 13 13 13 13 13 13 12 12 12 12 11 11 11 11 11 11 11
14 15 14 14 15 15 16 16 16 16 15 15 15 15 15 15 14 14 14 14 14 14 13 13 13 13 13 13 13 13 13 13 12 12 12 12 11 11 11 10 10 10 10 10
15 14 14 14 15 15 15 15 15 15 15 15 14 14 14 14 14 14 14 13 13 13 13 13 13 13 13 13 12 12 12 12 12 12 11 11 11 11 11 10 10 9 9 9
14 14 14 14 14 14 15 15 14 14 14 14 14 14 14 14 13 13 13 13 13 13 12 12 12 12 12 12 12 12 12 12 12 11 11 11 10 10 10 10 9 9 8 8
14 14 14 14 14 14 14 14 13 13 13 13 13 13 13 13 13 12 12 12 12 12 12 12 12 12 12 12 12 12 11 11 11 11 11 10 10 10 9 9 9 9 8 8
13 13 13 13 13 13 14 14 14 13 13 13 13 13 13 13 12 12 12 12 12 12 12 12 12 12 12 12 12 11 11 11 11 10 10 10 10 9 9 9 8 8 8 7
13 14 14 14 13 13 13 13 13 13 13 13 13 13 13 12 12 12 12 12 12 12 12 12 12 11 11 11 11 11 11 11 10 10 10 9 9 9 8 8 8 8 7 7
13 13 13 13 13 13 13 13 13 13 13 13 12 12 12 12 12 12 12 12 12 11 11 11 11 11 11 11 11 11 10 10 10 10 9 9 9 8 8 8 8 7 7 7
12 12 12 12 12 13 13 13 13 12 12 12 12 12 12 12 11 11 11 11 11 11 11 11 11 11 11 10 10 10 10 10 9 9 9 9 8 8 8 8 7 7 7 6
12 12 12 12 12 12 12 12 12 12 12 12 12 12 11 11 11 11 11 11 10 10 10 10 10 10 10 10 10 10 10 9 9 9 9 8 8 8 8 7 7 7 6 6
11 12 12 12 12 12 12 12 12 12 11 11 11 11 11 11 10 10 10 10 10 10 10 10 10 10 10 10 10 9 9 9 9 8 8 8 8 8 7 7 7 7 6 6
11 11 12 12 11 11 11 11 11 11 11 11 11 11 11 10 10 10 10 10 10 10 10 10 10 9 9 9 9 9 9 9 8 8 8 8 8 7 7 7 7 6 6 6
11 11 11 11 11 11 11 10 10 10 10 10 10 10 10 10 10 10 10 9 9 9 9 9 9 9 9 9 9 9 9 8 8 8 8 8 7 7 7 7 6 6 6 6
11 11 10 10 10 10 10 10 10 10 10 10 10 9 10 10 10 9 9 9 9 9 9 9 9 9 9 9 9 8 8 8 8 8 8 7 7 7 7 6 6 6 6 5
10 10 10 10 10 10 10 10 10 9 9 9 9 9 9 9 9 9 9 9 8 8 9 8 8 8 8 8 8 8 8 8 8 7 7 7 7 7 6 6 6 6 5 5
10 10 10 9 9 9 9 9 9 9 9 9 9 9 9 8 8 8 8 8 8 8 8 8 8 8 8 8 8 8 8 7 7 7 7 7 6 6 6 6 5 5 5 5
Wind_Speed
5 4 4 4 6 8 7 9 9 10 9 10 8 7 5 5 5 5 5 5 6 6 6 5 5 4 4 4 4 4 4 4 3 4 4 4 4 4 3 3 3 3 3 2
1 1 3 2 4 7 6 6 6 5 7 6 3 4 5 5 6 6 5 6 6 7 7 6 5 5 5 5 4 5 5 4 4 5 5 4 4 3 3 3 3 3 3 3
3 1 3 1 4 6 5 4 7 8 8 4 4 7 7 7 7 6 5 5 6 6 6 5 5 5 6 6 6 6 6 5 5 5 5 4 4 4 4 4 4 4 4 4
3 4 4 6 2 3 5 3 4 5 4 6 6 5 4 4 7 7 6 6 6 6 7 6 6 7 7 7 7 6 6 5 5 5 5 4 5 4 4 4 4 4 4 5
4 5 2 3 1 2 4 3 3 5 4 6 8 6 3 1 4 6 7 7 7 7 7 7 8 8 8 8 7 6 6 5 5 5 5 5 5 4 4 5 6 5 5 6
5 5 6 7 2 1 4 3 3 6 8 9 8 5 3 3 6 7 8 8 8 9 9 9 8 8 9 8 7 6 5 5 5 6 6 6 5 5 6 7 7 7 7 7
4 3 5 4 2 2 5 7 3 6 8 9 6 5 7 9 8 8 9 9 9 9 8 7 7 9 9 8 7 5 6 7 7 7 7 7 6 6 7 8 8 8 8 8
5 4 6 2 2 6 5 1 3 5 6 8 8 9 11 11 10 10 10 9 9 9 8 6 7 9 9 8 6 7 8 8 8 7 7 7 7 7 7 8 8 8 8 8
5 5 3 2 2 2 1 2 2 4 7 10 10 10 11 10 10 10 9 9 8 9 9 7 6 7 8 6 6 9 9 9 8 9 8 7 8 8 7 7 7 6 6 6
0 2 3 3 2 1 2 2 3 5 8 9 10 11 11 10 9 9 9 9 8 9 8 7 6 7 6 6 7 10 10 8 8 8 9 8 7 6 6 6 6 6 6 6
0 2 2 4 3 2 4 5 7 7 7 9 12 11 11 10 9 8 8 7 7 8 8 7 7 7 6 7 8 10 9 8 8 8 8 9 9 8 7 6 5 6 6 6
5 5 3 1 2 2 4 5 7 9 9 8 10 11 10 9 8 9 9 8 8 8 8 7 7 7 6 6 7 9 8 8 7 7 7 8 9 10 16 13 15 14 11 9
3 2 2 1 1 2 5 6 7 9 10 10 9 10 10 9 8 9 9 9 8 8 8 8 7 7 6 6 7 8 9 8 7 7 7 8 8 9 9 12 17 18 16 15
3 3 2 1 2 5 7 8 9 9 9 10 10 10 10 10 9 10 9 8 9 9 8 8 8 7 5 7 8 9 9 9 8 7 7 8 8 8 8 9 9 8 11 15
1 3 4 4 6 7 8 10 11 10 10 10 10 10 10 11 10 9 8 8 9 9 8 8 8 7 6 7 9 9 9 7 8 8 8 8 8 9 9 9 9 8 7 8
4 5 6 7 8 8 9 10 11 10 10 10 10 10 10 11 10 9 8 8 9 8 7 8 7 6 7 8 9 8 8 12 10 8 8 8 8 8 8 8 8 7 7 5
5 5 7 8 7 7 7 7 9 10 10 11 10 11 11 12 11 10 8 8 9 8 7 7 7 6 7 8 9 8 8 10 12 9 8 8 8 8 8 8 7 7 6 5
4 5 7 9 8 8 8 8 9 10 10 10 11 11 11 11 10 9 9 9 10 9 7 6 6 8 8 8 8 8 8 8 7 8 7 7 8 7 7 7 8 8 6 6
6 7 7 8 8 9 9 9 9 9 9 10 11 10 10 9 9 9 9 10 9 7 4 5 9 9 8 8 9 8 9 9 8 7 7 9 8 7 7 7 7 6 6 5
7 8 8 9 9 9 9 9 10 9 9 10 11 11 10 9 9 10 10 8 5 4 5 7 8 8 7 8 10 8 9 9 9 8 7 7 7 7 6 7 7 6 5 5
8 9 9 10 9 9 9 10 10 10 9 10 11 11 10 9 9 9 9 7 4 5 7 9 7 6 7 8 10 8 8 8 8 7 7 7 7 7 6 6 6 5 5 5
7 8 9 10 10 9 8 8 10 10 10 10 10 11 11 10 9 8 7 5 5 8 7 6 6 8 9 10 8 8 8 8 7 7 7 7 7 6 6 6 5 5 4 4
7 8 9 10 10 10 9 9 10 10 10 10 10 11 10 8 7 8 6 4 5 9 7 6 9 12 12 8 7 8 8 8 7 7 6 6 6 6 6 5 5 4 4 4
8 8 9 9 10 11 10 9 9 9 10 9 8 9 9 8 6 5 6 8 10 10 7 9 12 12 11 7 7 7 7 7 6 6 6 5 5 5 5 5 4 4 4 4
9 9 10 11 10 9 10 11 11 11 10 9 9 8 6 6 7 7 7 9 11 10 8 9 11 10 8 7 7 6 6 6 6 6 6 5 5 5 5 5 4 4 3 3
8 8 7 8 8 8 8 8 8 8 8 8 7 7 7 7 9 8 7 8 9 10 8 6 6 7 6 6 6 6 6 6 6 6 5 5 5 5 4 4 5 4 3 3
9 8 8 8 7 7 7 8 8 8 7 9 8 7 7 8 8 8 8 7 7 7 6 5 5 5 6 5 6 6 5 5 5 5 5 5 5 5 5 5 4 4 4 4
Wind_Direction
208 210 173 181 183 170 167 174 177 217 221 237 224 205 185 160 145 131 138 142 145 145 138 130 131 133 133 127 121 129 133 139 146 141 137 139 146 151 154 152 152 152 156 160
233 244 166 170 195 180 180 174 194 201 239 243 190 149 145 152 148 147 150 150 145 139 135 136 139 133 121 108 104 109 114 116 114 117 123 130 133 131 130 130 127 120 121 125
214 271 95 242 225 189 183 185 174 198 224 173 160 169 170 165 155 155 151 143 137 133 130 127 129 123 113 103 100 102 103 100 103 111 120 130 132 124 126 127 120 109 101 97
143 105 189 242 248 182 170 205 212 221 209 171 167 139 118 140 148 145 139 133 125 117 113 105 102 102 101 100 102 102 100 98 100 107 111 112 114 115 119 118 111 102 99 97
130 150 218 275 243 160 169 247 230 193 153 132 126 92 49 80 129 138 132 127 119 112 112 107 106 108 107 103 102 99 96 93 93 103 108 106 105 105 103 102 96 91 88 88
128 141 199 228 233 231 129 274 240 173 160 153 135 136 201 147 114 114 112 112 112 108 106 107 109 113 109 106 101 96 91 87 86 91 100 100 96 93 92 97 96 92 81 73
142 168 240 247 276 120 159 228 207 171 164 160 163 170 148 132 115 112 109 106 105 102 100 105 111 112 109 104 98 94 90 88 84 84 89 92 91 93 97 98 95 89 82 70
143 159 233 285 124 173 206 196 140 148 149 139 121 115 123 125 121 117 112 105 103 100 94 89 99 108 107 103 100 96 92 88 83 79 82 88 92 89 92 99 98 91 85 73
180 202 254 291 228 260 182 154 156 139 136 130 122 122 121 120 119 114 112 108 105 105 97 84 84 103 110 107 104 99 93 88 86 82 77 78 85 89 88 90 95 95 93 86
82 306 315 325 337 22 93 113 109 124 128 127 125 126 122 120 117 114 111 111 111 109 105 95 86 91 102 105 103 102 98 93 90 88 81 73 71 74 83 87 96 100 100 97
112 279 352 7 10 59 82 91 96 100 110 124 124 124 124 124 122 118 112 107 109 112 111 107 102 98 98 103 108 105 101 98 95 92 92 82 71 60 67 58 83 103 103 103
204 215 179 258 315 85 93 104 113 110 106 113 122 123 121 121 119 116 114 111 109 108 110 110 106 101 99 105 113 114 109 105 104 104 99 97 94 77 59 66 66 69 78 93
199 165 149 181 21 91 108 113 115 116 120 116 113 118 118 116 113 112 111 113 116 115 113 111 107 104 103 108 112 114 117 115 111 109 108 105 103 102 92 68 60 60 65 78
148 124 105 127 118 102 110 106 101 101 103 110 116 114 113 112 112 112 114 117 115 112 110 109 108 105 106 110 112 111 111 110 111 109 109 107 105 103 102 102 90 67 57 68
101 147 147 124 109 109 113 111 108 106 106 106 111 115 117 116 113 111 111 112 110 107 108 108 105 102 103 109 111 112 112 112 108 105 104 104 103 101 99 99 98 95 87 69
106 109 120 125 125 126 123 123 122 121 117 114 113 114 115 113 110 106 105 109 111 109 109 108 106 107 107 109 108 105 107 111 110 110 108 106 104 104 104 104 101 98 94 89
144 144 140 137 137 131 128 130 130 129 124 119 118 118 115 112 107 102 99 98 100 100 101 105 108 110 110 113 113 113 113 114 111 108 108 111 111 111 111 109 106 99 88 79
169 162 153 150 147 134 125 123 123 125 125 123 121 119 119 121 120 117 112 107 98 87 79 90 105 107 106 109 112 115 115 115 114 113 111 111 112 113 112 111 110 105 96 86
126 128 128 129 130 130 130 129 125 121 122 123 121 118 117 117 118 115 111 107 106 102 87 92 104 104 106 110 112 112 116 117 114 112 113 112 111 112 114 115 115 112 110 104
115 118 119 119 119 123 127 127 123 120 121 121 118 115 114 115 116 113 105 96 94 114 121 113 107 104 106 111 111 115 118 120 121 120 118 118 117 116 116 118 118 118 115 112
117 119 122 121 116 115 121 124 125 123 120 119 122 123 121 116 114 113 110 101 80 98 108 107 105 107 107 113 111 115 117 119 120 121 123 122 120 119 120 121 122 123 123 122
123 120 120 119 118 115 114 117 120 121 118 115 116 119 118 114 108 98 89 106 114 110 108 106 108 112 115 113 113 116 118 119 120 121 123 126 128 130 130 130 129 129 129 134
121 120 122 122 122 117 110 112 117 121 122 122 124 124 121 118 119 119 112 105 111 110 108 111 116 115 112 110 114 117 121 124 126 129 131 132 135 136 137 136 138 139 140 142
117 116 117 117 116 114 112 109 109 111 110 109 112 118 120 114 95 85 110 117 113 108 105 112 115 116 114 113 115 117 121 125 127 129 130 130 132 136 139 141 143 145 146 150
115 117 119 120 118 118 117 113 109 106 104 103 99 98 100 107 116 115 113 116 116 109 106 110 113 114 113 115 117 121 124 128 132 135 137 140 143 145 148 150 153 153 154 161
113 116 116 115 119 123 123 120 118 117 117 111 101 98 98 98 104 108 108 113 113 112 111 112 114 113 113 115 119 123 125 128 129 132 139 142 146 148 151 156 159 162 165 173
103 104 104 102 103 112 118 120 123 123 123 122 116 111 110 109 110 113 114 115 115 113 111 111 112 114 116 119 121 122 123 127 132 136 140 143 149 154 159 161 165 169 170 172
Height
1468 1465 1465 1466 1469 1473 1477 1483 1490 1486 1483 1473 1469 1469 1471 1472 1474 1476 1478 1480 1482 1485 1488 1491 1494 1497 1499 1502 1504 1506 1507 1509 1510 1512 1514 1516 1517 1520 1522 1523 1525 1526 1527 1528
1467 1462 1462 1466 1466 1468 1470 1474 1475 1474 1475 1465 1466 1468 1471 1472 1474 1475 1477 1480 1483 1485 1488 1491 1494 1497 1499 1501 1503 1505 1506 1508 1509 1511 1512 1514 1516 1519 1521 1522 1523 1524 1525 1526
1475 1466 1464 1475 1467 1466 1467 1467 1469 1473 1468 1464 1466 1467 1469 1471 1473 1475 1477 1480 1482 1485 1488 1491 1494 1497 1499 1502 1504 1505 1506 1508 1509 1510 1512 1514 1515 1517 1519 1521 1522 1523 1524 1525
1477 1473 1483 1472 1459 1459 1462 1463 1462 1461 1461 1462 1463 1466 1469 1471 1473 1475 1478 1481 1483 1486 1488 1492 1495 1498 1500 1503 1504 1505 1506 1507 1509 1510 1512 1514 1515 1517 1519 1520 1521 1522 1523 1524
1481 1481 1475 1465 1459 1459 1462 1463 1459 1460 1460 1462 1464 1467 1470 1472 1473 1476 1478 1481 1484 1487 1490 1492 1496 1498 1501 1503 1504 1506 1507 1508 1509 1511 1512 1514 1515 1517 1518 1519 1521 1522 1523 1523
1477 1480 1481 1465 1455 1455 1459 1465 1456 1457 1459 1461 1463 1471 1472 1471 1474 1477 1479 1482 1485 1487 1490 1493 1496 1499 1501 1503 1505 1506 1508 1509 1510 1512 1513 1514 1516 1517 1518 1520 1521 1522 1523 1524
1474 1475 1469 1456 1453 1455 1468 1464 1454 1454 1455 1458 1460 1464 1467 1470 1474 1477 1480 1483 1486 1489 1492 1495 1497 1499 1501 1503 1506 1507 1509 1510 1511 1512 1514 1515 1516 1517 1518 1520 1521 1523 1523 1525
1474 1475 1471 1453 1452 1456 1456 1451 1452 1453 1455 1457 1459 1463 1466 1470 1474 1478 1481 1484 1488 1490 1493 1496 1498 1500 1502 1503 1506 1507 1509 1511 1512 1513 1515 1516 1517 1518 1520 1521 1522 1523 1525 1526
1464 1464 1455 1453 1452 1452 1452 1452 1452 1453 1455 1457 1460 1464 1467 1471 1475 1478 1482 1485 1489 1492 1494 1497 1499 1501 1503 1505 1506 1508 1510 1512 1513 1515 1516 1517 1518 1519 1521 1522 1523 1524 1525 1526
1459 1456 1453 1452 1451 1451 1451 1452 1453 1454 1456 1459 1461 1465 1469 1473 1477 1480 1483 1487 1490 1492 1495 1498 1500 1502 1504 1506 1507 1509 1511 1512 1514 1516 1517 1518 1520 1521 1522 1523 1524 1525 1527 1527
1458 1455 1453 1452 1452 1452 1452 1453 1455 1457 1459 1461 1464 1467 1470 1474 1478 1482 1485 1488 1491 1494 1496 1499 1501 1503 1505 1507 1508 1510 1511 1513 1515 1517 1519 1520 1521 1523 1524 1525 1527 1528 1529 1530
1457 1454 1454 1454 1454 1454 1454 1454 1456 1458 1461 1464 1466 1469 1473 1477 1480 1483 1486 1489 1493 1495 1498 1500 1502 1504 1505 1508 1510 1511 1512 1514 1516 1518 1520 1521 1523 1524 1526 1528 1530 1531 1532 1532
1451 1452 1453 1454 1455 1455 1456 1457 1458 1460 1463 1464 1468 1472 1475 1479 1482 1485 1488 1491 1494 1496 1499 1501 1503 1505 1507 1509 1511 1512 1514 1516 1518 1520 1522 1524 1525 1527 1528 1531 1533 1534 1535 1536
1450 1452 1454 1454 1455 1457 1458 1459 1460 1462 1465 1467 1470 1474 1478 1481 1484 1487 1490 1493 1495 1498 1500 1502 1504 1506 1508 1510 1512 1514 1516 1518 1520 1522 1524 1526 1528 1530 1532 1533 1535 1537 1539 1540
1451 1452 1453 1454 1456 1458 1460 1461 1463 1465 1467 1470 1473 1477 1480 1483 1486 1489 1492 1495 1497 1500 1502 1504 1505 1507 1509 1512 1514 1516 1518 1520 1522 1524 1526 1529 1531 1533 1534 1536 1538 1540 1542 1543
1451 1452 1454 1455 1457 1459 1461 1463 1465 1467 1470 1473 1476 1479 1482 1485 1489 1492 1495 1498 1500 1502 1504 1506 1507 1510 1512 1514 1516 1518 1520 1522 1525 1527 1529 1531 1534 1536 1537 1539 1541 1543 1544 1546
1451 1452 1454 1456 1458 1461 1463 1464 1466 1469 1472 1475 1478 1482 1485 1488 1491 1494 1498 1500 1503 1505 1507 1509 1510 1512 1515 1517 1519 1520 1523 1525 1528 1530 1532 1534 1536 1539 1541 1542 1544 1546 1547 1549
1450 1451 1453 1455 1458 1461 1464 1466 1468 1471 1474 1477 1480 1484 1487 1490 1493 1497 1499 1502 1504 1507 1509 1512 1514 1515 1517 1519 1521 1523 1525 1528 1530 1532 1535 1537 1539 1541 1543 1545 1547 1548 1550 1551
1449 1451 1454 1456 1459 1461 1464 1467 1470 1473 1476 1480 1482 1486 1489 1493 1496 1499 1501 1504 1506 1509 1512 1514 1516 1518 1520 1522 1525 1526 1528 1530 1532 1535 1537 1539 1542 1544 1546 1548 1549 1551 1552 1553
1450 1452 1455 1458 1461 1463 1466 1469 1472 1475 1478 1482 1484 1488 1491 1495 1498 1501 1504 1506 1509 1511 1514 1517 1519 1521 1523 1525 1527 1529 1531 1533 1535 1537 1540 1542 1544 1546 1548 1550 1552 1553 1554 1555
1451 1453 1456 1459 1462 1465 1468 1471 1474 1477 1480 1484 1487 1490 1493 1497 1500 1503 1506 1508 1512 1514 1517 1519 1521 1523 1525 1528 1530 1532 1534 1536 1538 1540 1542 1544 1546 1548 1550 1552 1554 1555 1556 1557
1452 1455 1457 1460 1463 1467 1470 1473 1476 1479 1482 1486 1489 1493 1496 1499 1503 1506 1509 1511 1514 1517 1519 1521 1524 1526 1528 1530 1532 1534 1536 1539 1541 1543 1545 1547 1548 1550 1552 1553 1555 1556 1557 1558
1454 1456 1459 1462 1465 1469 1472 1476 1479 1482 1485 1488 1491 1495 1498 1502 1505 1508 1511 1514 1516 1519 1522 1524 1526 1528 1530 1532 1534 1537 1539 1541 1543 1545 1547 1548 1550 1552 1553 1555 1556 1557 1558 1559
1456 1459 1462 1465 1468 1471 1474 1478 1482 1485 1488 1491 1495 1498 1501 1504 1508 1511 1514 1517 1519 1522 1524 1526 1529 1531 1533 1535 1537 1539 1541 1543 1545 1546 1548 1550 1551 1553 1554 1556 1557 1558 1558 1559
1458 1461 1464 1467 1470 1473 1477 1480 1484 1487 1491 1494 1498 1501 1505 1508 1510 1514 1517 1520 1522 1525 1527 1529 1531 1533 1535 1537 1539 1541 1543 1545 1546 1548 1550 1551 1552 1554 1555 1556 1557 1558 1558 1559
1462 1465 1467 1470 1473 1476 1479 1483 1486 1490 1493 1497 1501 1504 1508 1511 1514 1517 1520 1523 1525 1528 1530 1532 1534 1536 1538 1539 1541 1543 1545 1546 1548 1549 1550 1552 1553 1554 1555 1556 1557 1558 1558 1559
1465 1468 1471 1474 1477 1480 1483 1486 1489 1493 1496 1500 1503 1507 1511 1514 1517 1520 1523 1525 1528 1530 1532 1534 1536 1538 1540 1542 1543 1544 1546 1547 1548 1550 1551 1552 1553 1554 1555 1556 1557 1557 1558 1558